This demonstration page uses our WeatherBlox Daily Observations layout. Learn more.

Left ArrowRight Arrow

Hourly Observations for May 1, 2020

Temp ( °F °C ) Dew Point ( °F °C ) Humidity (%) Winds ( mph kmh ) Pressure ( in mb ) Visibility ( mi km ) Precip ( " mm )
12:51 am 00:51 Clear 70 21.1 33 0.6 26 26 E 5 7 29.76 1008 10 16.0934 0 0
1:51 am 01:51 Clear 70 21.1 32 0 25 25 NNE 5 7 29.74 1007 10 16.0934 0 0
2:51 am 02:51 Clear 68 20 32 0 26 26 SSE 5 7 29.75 1007 10 16.0934 0 0
3:51 am 03:51 Clear 66 18.9 33 0.6 29 29 SE 6 9 29.75 1008 10 16.0934 0 0
4:51 am 04:51 Clear 65 18.3 33 0.6 31 31 E 5 7 29.77 1008 10 16.0934 0 0
5:51 am 05:51 Sunny 64 17.8 33 0.6 32 32 E 6 9 29.8 1009 10 16.0934 0 0
6:51 am 06:51 Sunny 71 21.7 35 1.7 27 27 ESE 5 7 29.81 1010 10 16.0934 0 0
7:51 am 07:51 Sunny 79 26.1 36 2.2 21 21 E 9 15 29.81 1010 10 16.0934 0 0
8:51 am 08:51 Sunny 84 28.9 34 1.1 17 17 E 9 15 29.82 1010 10 16.0934 0 0
9:51 am 09:51 Sunny 89 31.7 33 0.6 14 14 ESE 8 13 29.81 1010 10 16.0934 0 0
10:51 am 10:51 Sunny 93 33.9 32 0 11 11 NNE 7 11 29.81 1009 10 16.0934 0 0
11:51 am 11:51 Sunny 96 35.6 22 -5.6 7 7 NNW 9 15 29.78 1009 10 16.0934 0 0
12:51 pm 12:51 Sunny 96 35.6 20 -6.7 6 6 VRB 5 7 29.77 1008 10 16.0934 0 0
1:51 pm 13:51 Sunny 99 37.2 10 -12.2 4 4 W 12 19 29.74 1007 10 16.0934 0 0
2:51 pm 14:51 Sunny 99 37.2 9 -12.8 3 3 W 21 33 29.72 1007 10 16.0934 0 0
3:51 pm 15:51 Sunny 98 36.7 10 -12.2 4 4 WSW 18 30 29.72 1006 10 16.0934 0 0
4:51 pm 16:51 Sunny 97 36.1 12 -11.1 4 4 W 18 30 29.71 1006 10 16.0934 0 0
5:51 pm 17:51 Sunny 95 35 15 -9.4 5 5 W 15 24 29.72 1007 10 16.0934 0 0
6:51 pm 18:51 Sunny 90 32.2 14 -10 6 6 WNW 10 17 29.73 1007 10 16.0934 0 0
7:51 pm 19:51 Clear 82 27.8 16 -8.9 8 8 WNW 8 13 29.75 1008 10 16.0934 0 0
8:51 pm 20:51 Clear 78 25.6 16 -8.9 9 9 NW 7 11 29.78 1008 10 16.0934 0 0
9:51 pm 21:51 Clear 77 25 14 -10 9 9 NW 9 15 29.79 1009 10 16.0934 0 0
10:51 pm 22:51 Clear 75 23.9 14 -10 10 10 NNW 12 19 29.79 1009 10 16.0934 0 0
11:51 pm 23:51 Clear 77 25 14 -10 9 9 NNW 10 17 29.79 1009 10 16.0934 0 0

Powered by AerisWeather